Location: Boćki
(52.6512°N, 23.0459°E)
Time: 07:41:30
(UTC+01:00)

ISS - Pass Details

Date: 28 January 2019
Orbit: 403 x 411 km, 51.6° (Epoch: 17 February)

Event Time Altitude Azimuth Distance (km) Brightness Sun altitude
Rises 19:08:28 0° 266° (W) 2,338 1.3 -27.6°
Reaches altitude 10° 19:10:34 10° 265° (W) 1,478 -0.1 -27.9°
Enters shadow 19:11:38 19° 263° (W) 1,049 -1.0 -28.0°
